Stündliche Wetter Aberin

Heute, 17 Juni, Donnerstag

Zeit Temperatur Niederschläge Wind Luftdruck Luftfeuchtigkeit
00:00 +19°C° 0 mm 1 m/S 713 mmHg 84%
01:00 +19°C° 0 mm 1 m/S 713 mmHg 84%
02:00 +19°C° 0 mm 1 m/S 712 mmHg 84%
03:00 +19°C° 0 mm 1 m/S 712 mmHg 84%
04:00 +18°C° 1.4 mm 2 m/S 712 mmHg 88%
05:00 +17°C° 1.4 mm 3 m/S 712 mmHg 91%
06:00 +17°C° 0 mm 4 m/S 712 mmHg 94%
07:00 +17°C° 1.4 mm 3 m/S 712 mmHg 91%
08:00 +18°C° 1.4 mm 2 m/S 712 mmHg 89%
09:00 +19°C° 1.4 mm 1 m/S 712 mmHg 86%
10:00 +18°C° 1 mm 1 m/S 712 mmHg 88%
11:00 +18°C° 1 mm 1 m/S 712 mmHg 89%
12:00 +19°C° 0 mm 3 m/S 712 mmHg 84%
13:00 +19°C° 0.8 mm 3 m/S 712 mmHg 80%
14:00 +20°C° 0.8 mm 4 m/S 712 mmHg 75%
15:00 +20°C° 0.8 mm 4 m/S 711 mmHg 71%
16:00 +20°C° 0.1 mm 4 m/S 712 mmHg 70%
17:00 +20°C° 0.1 mm 3 m/S 712 mmHg 70%
18:00 +19°C° 0.1 mm 2 m/S 712 mmHg 69%
19:00 +19°C° 0 mm 1 m/S 713 mmHg 73%
20:00 +18°C° 0 mm 1 m/S 713 mmHg 77%
21:00 +15°C° 0 mm 0 m/S 713 mmHg 81%
22:00 +15°C° 0 mm 0 m/S 713 mmHg 82%
23:00 +15°C° 0 mm 0 m/S 713 mmHg 84%

Morgen, 18 Juni, Freitag

Zeit Temperatur Niederschläge Wind Luftdruck Luftfeuchtigkeit
00:00 +14°C° 0 mm 0 m/S 714 mmHg 85%
01:00 +14°C° 0 mm 0 m/S 713 mmHg 85%
02:00 +15°C° 0 mm 1 m/S 713 mmHg 86%
03:00 +14°C° 0 mm 1 m/S 713 mmHg 86%
04:00 +15°C° 0 mm 1 m/S 714 mmHg 85%
05:00 +16°C° 0 mm 1 m/S 714 mmHg 83%
06:00 +16°C° 0 mm 1 m/S 714 mmHg 82%
07:00 +19°C° 0 mm 1 m/S 714 mmHg 75%
08:00 +20°C° 0 mm 2 m/S 715 mmHg 68%
09:00 +22°C° 0 mm 3 m/S 715 mmHg 62%
10:00 +24°C° 0 mm 3 m/S 715 mmHg 57%
11:00 +25°C° 0 mm 4 m/S 715 mmHg 51%
12:00 +27°C° 0 mm 4 m/S 715 mmHg 46%
13:00 +27°C° 0 mm 4 m/S 715 mmHg 46%
14:00 +27°C° 0 mm 4 m/S 714 mmHg 46%
15:00 +27°C° 0 mm 4 m/S 714 mmHg 46%
16:00 +26°C° 0.1 mm 3 m/S 714 mmHg 50%
17:00 +25°C° 0.1 mm 2 m/S 714 mmHg 55%
18:00 +24°C° 0.1 mm 1 m/S 714 mmHg 60%
19:00 +23°C° 0.3 mm 1 m/S 714 mmHg 67%
20:00 +21°C° 0.3 mm 1 m/S 714 mmHg 74%
21:00 +20°C° 0.3 mm 1 m/S 714 mmHg 82%
22:00 +19°C° 0.5 mm 1 m/S 714 mmHg 84%
23:00 +19°C° 0.5 mm 1 m/S 714 mmHg 86%

übermorgen, 19 Juni, Samstag

Zeit Temperatur Niederschläge Wind Luftdruck Luftfeuchtigkeit
00:00 +19°C° 0.5 mm 1 m/S 714 mmHg 88%
01:00 +18°C° 0.3 mm 1 m/S 714 mmHg 88%
02:00 +18°C° 0.3 mm 1 m/S 714 mmHg 88%
03:00 +18°C° 0.3 mm 1 m/S 714 mmHg 88%
04:00 +18°C° 0.3 mm 1 m/S 714 mmHg 88%
05:00 +18°C° 0.3 mm 1 m/S 714 mmHg 88%
06:00 +17°C° 0.3 mm 2 m/S 714 mmHg 89%
07:00 +19°C° 0.3 mm 2 m/S 714 mmHg 83%
08:00 +20°C° 0.3 mm 2 m/S 714 mmHg 77%
09:00 +21°C° 0.3 mm 3 m/S 714 mmHg 71%
10:00 +21°C° 0.9 mm 4 m/S 714 mmHg 71%
11:00 +21°C° 0.9 mm 4 m/S 714 mmHg 70%
12:00 +22°C° 0.9 mm 5 m/S 714 mmHg 69%
13:00 +22°C° 0.7 mm 5 m/S 714 mmHg 65%
14:00 +23°C° 0.7 mm 5 m/S 713 mmHg 62%
15:00 +23°C° 0.7 mm 5 m/S 713 mmHg 58%
16:00 +23°C° 0 mm 4 m/S 712 mmHg 54%
17:00 +23°C° 0 mm 4 m/S 712 mmHg 49%
18:00 +24°C° 0 mm 3 m/S 711 mmHg 45%
19:00 +22°C° 0.1 mm 3 m/S 711 mmHg 53%
20:00 +20°C° 0.1 mm 3 m/S 712 mmHg 60%
21:00 +18°C° 0.1 mm 3 m/S 712 mmHg 67%
22:00 +17°C° 0.6 mm 3 m/S 712 mmHg 73%
23:00 +16°C° 0.6 mm 2 m/S 712 mmHg 78%

20 Juni, Sonntag

Zeit Temperatur Niederschläge Wind Luftdruck Luftfeuchtigkeit
00:00 +15°C° 0.6 mm 2 m/S 712 mmHg 84%
01:00 +15°C° 0.3 mm 2 m/S 711 mmHg 83%
02:00 +15°C° 0.3 mm 1 m/S 711 mmHg 83%
03:00 +14°C° 0.3 mm 1 m/S 711 mmHg 82%
04:00 +15°C° 0 mm 1 m/S 711 mmHg 81%
05:00 +15°C° 0 mm 1 m/S 711 mmHg 80%
06:00 +15°C° 0 mm 1 m/S 711 mmHg 79%
07:00 +17°C° 0 mm 2 m/S 712 mmHg 71%
08:00 +18°C° 0 mm 3 m/S 712 mmHg 63%
09:00 +20°C° 0 mm 3 m/S 712 mmHg 55%
10:00 +20°C° 0 mm 4 m/S 712 mmHg 55%
11:00 +20°C° 0 mm 4 m/S 712 mmHg 55%
12:00 +20°C° 0 mm 4 m/S 712 mmHg 54%
13:00 +21°C° 0 mm 4 m/S 711 mmHg 52%
14:00 +21°C° 0 mm 4 m/S 711 mmHg 50%
15:00 +22°C° 0 mm 3 m/S 711 mmHg 48%
16:00 +21°C° 0.1 mm 3 m/S 711 mmHg 54%
17:00 +20°C° 0.1 mm 2 m/S 710 mmHg 59%
18:00 +20°C° 0.1 mm 1 m/S 710 mmHg 65%
19:00 +19°C° 0.3 mm 1 m/S 710 mmHg 70%
20:00 +17°C° 0.3 mm 2 m/S 711 mmHg 75%
21:00 +16°C° 0.3 mm 2 m/S 711 mmHg 80%
22:00 +15°C° 0.2 mm 2 m/S 711 mmHg 81%
23:00 +14°C° 0.2 mm 1 m/S 711 mmHg 82%

21 Juni, Montag

Zeit Temperatur Niederschläge Wind Luftdruck Luftfeuchtigkeit
00:00 +14°C° 0.2 mm 1 m/S 711 mmHg 83%
01:00 +13°C° 0 mm 1 m/S 711 mmHg 83%
02:00 +13°C° 0 mm 1 m/S 711 mmHg 82%
03:00 +12°C° 0 mm 1 m/S 711 mmHg 82%
04:00 +13°C° 0 mm 1 m/S 711 mmHg 80%
05:00 +13°C° 0 mm 1 m/S 711 mmHg 79%
06:00 +14°C° 0 mm 1 m/S 712 mmHg 77%
07:00 +15°C° 0 mm 1 m/S 712 mmHg 69%
08:00 +17°C° 0 mm 2 m/S 712 mmHg 61%
09:00 +19°C° 0 mm 2 m/S 712 mmHg 53%
10:00 +19°C° 0 mm 3 m/S 713 mmHg 50%
11:00 +20°C° 0 mm 3 m/S 713 mmHg 48%
12:00 +21°C° 0 mm 3 m/S 713 mmHg 45%
13:00 +22°C° 0.1 mm 3 m/S 713 mmHg 45%
14:00 +22°C° 0.1 mm 3 m/S 713 mmHg 45%
15:00 +22°C° 0.1 mm 3 m/S 713 mmHg 44%
16:00 +21°C° 0.1 mm 3 m/S 713 mmHg 50%
17:00 +20°C° 0.1 mm 2 m/S 713 mmHg 55%
18:00 +20°C° 0.1 mm 2 m/S 713 mmHg 60%
19:00 +18°C° 0 mm 2 m/S 714 mmHg 68%
20:00 +17°C° 0 mm 2 m/S 714 mmHg 75%
21:00 +15°C° 0 mm 2 m/S 714 mmHg 82%
22:00 +15°C° 0 mm 2 m/S 714 mmHg 84%
23:00 +14°C° 0 mm 2 m/S 714 mmHg 86%

22 Juni, Dienstag

Zeit Temperatur Niederschläge Wind Luftdruck Luftfeuchtigkeit
00:00 +14°C° 0 mm 2 m/S 714 mmHg 88%
01:00 +13°C° 0 mm 2 m/S 714 mmHg 87%
02:00 +13°C° 0 mm 2 m/S 714 mmHg 87%
03:00 +13°C° 0 mm 2 m/S 714 mmHg 86%
04:00 +14°C° 0.1 mm 2 m/S 715 mmHg 85%
05:00 +14°C° 0.1 mm 2 m/S 715 mmHg 84%
06:00 +14°C° 0.1 mm 2 m/S 715 mmHg 83%
07:00 +15°C° 0 mm 2 m/S 716 mmHg 76%
08:00 +17°C° 0 mm 2 m/S 716 mmHg 69%
09:00 +18°C° 0 mm 3 m/S 716 mmHg 62%
10:00 +19°C° 0 mm 3 m/S 717 mmHg 57%
11:00 +21°C° 0 mm 3 m/S 717 mmHg 53%
12:00 +22°C° 0 mm 4 m/S 717 mmHg 49%
13:00 +22°C° 0 mm 4 m/S 717 mmHg 50%
14:00 +22°C° 0 mm 5 m/S 717 mmHg 50%
15:00 +22°C° 0 mm 5 m/S 717 mmHg 50%
16:00 +21°C° 0 mm 5 m/S 718 mmHg 54%
17:00 +20°C° 0 mm 5 m/S 718 mmHg 58%
18:00 +19°C° 0 mm 5 m/S 718 mmHg 62%
19:00 +18°C° 0 mm 4 m/S 719 mmHg 70%
20:00 +15°C° 0 mm 4 m/S 719 mmHg 77%
21:00 +14°C° 0 mm 3 m/S 720 mmHg 84%
22:00 +14°C° 0 mm 3 m/S 720 mmHg 85%
23:00 +13°C° 0 mm 3 m/S 720 mmHg 87%
Mehr zeigen

Wir brauchen deine Erlaubnis

Meteoprog und unser Service Anbieter werden persönliche Daten aufbewahren, so wie Cookies, Geräte Bezeichnung oder ähnliche Technologien von deinem Gerät und Prozess, so wie Persönliche Daten Inhalte und Werbungen, genauso wie social Media und den Verkehr zu analysieren.

  • Aufbewahrung und/oder Zugang zu deiner Geräte Informationen.

    Cookies, Geräte Bezeichnung oder andere Informationen, können aufbewahrt oder Zugang zu deinem Gerät erhalten, für den Grund, der oben angegeben wird.

  • Personalisierte Werbung und Inhalte, Messungen, Einblick in das Publikum und Produkt Entwicklung.

    Werbungen und Inhalte können personalisiert werden, basierend auf ein Profil. Mehr Daten können besser personalisierte Werbungen und Inhalte hinzufügen. Werbung und Inhalte können gezeigt und gemessen werden. Einblicke über das Publikum, welche die Werbung gesehen haben und den Inhalt, können abgeleitet werden. So wie Daten können genutzt werden, um es zu verbessern oder die Benutzer Erfahrung zu verbessern das System und die Software.

Wenn du “Ich stimme zu” klickst, erlaubst du uns, die Cookies zu benutzen die Geräte Bezeichnung, den Web oder ähnliche Technologien zu benutzen. Deine Settings, können in deinem Gerät bei deinem Browser geändert werden.

Für den bestimmten Zweck, berechtigten Interessen beruhen darauf, mehr als auf den Inhalt. Du kannst mehr darüber in unseren Privaten und Cookie Politik lesen.